Retour au catalogue

ATLAS 5 CENTAUR DEB

LostHEO
NORAD 44648·DEBRIS·🇺🇸 United States

Lancé Oct 17, 2018 depuis Cape Canaveral Space Force Station

Loading…

Prochains Passages (prochaines 24 heures)

TLE

PériméSource: Space-Track

Époque: Aug 30, 2025, 03:05 UTC

1 44648U 18079J   25242.12883745 -.00000169  00000-0  00000-0 0  9991
2 44648  12.8624  49.2931 4458137 296.0446  25.0538  1.92370041 48105

Suivez ATLAS 5 CENTAUR DEB en temps réel avec AllMySat

Download on the App Store